Flag for Germany Weather past 2 weeks in Alsdorf, North Rhine-Westphalia, Germany

Now
45 °F

Clear.


Feels Like: 45 °F
Forecast: 41 / 49 °F
Wind: 2 mph from Southeast

Location: Geilenkirchen Airport


UV Index: 3 (Moderate)

Visibility: 10 mi


Pressure: 30.30 "Hg

Humidity: 61%

Dew point: 32 °F

Location of AlsdorfLocation

Historic Weather in Alsdorf

°F

Alsdorf temperature yesterday

Maximum temperature yesterday: 59 °F (at 4:50 PM)
Minimum temperature yesterday: 30 °F (at 5:50 AM)
Average temperature yesterday: 46 °F

Past Weeks' High & Low Weather Summary

 TemperatureHumidityPressure
High73 °F (Apr 2, 5:50 PM)100% (Apr 7, 11:50 PM)30.45 "Hg (Apr 7, 11:50 PM)
Low30 °F (Apr 16, 5:50 AM)34% (Apr 16, 4:50 PM)29.62 "Hg (Apr 3, 2:50 AM)
Average53 °F69%30.05 "Hg
* Reported Apr 2 2:50 AM — Apr 17 2:50 AM, Alsdorf, Weather by CustomWeather, © 2014

Note: Actual official high and low records may vary slightly from our data, if they occured in-between our weather recording intervals... More about our weather records

Advertising

Historic Weather Conditions — Data for Previous 24 hours

 ConditionsComfort  
Time TempWeatherWind HumidityBarometerVisibility
2:50 AM
Apr 17
41 °FClear.No wind70%30.30 "Hg10 mi
1:50 AM48 °FClear.No wind54%30.30 "Hg10 mi
12:50 AM48 °FClear.1 mph54%30.33 "Hg10 mi
11:50 PM
Apr 16
50 °FClear.3 mph50%30.33 "Hg10 mi
10:50 PM46 °FClear.No wind57%30.33 "Hg10 mi
9:50 PM46 °FClear.2 mph57%30.33 "Hg10 mi
8:50 PM48 °FSunny.5 mph54%30.33 "Hg10 mi
7:50 PM57 °FSunny.7 mph36%30.33 "Hg10 mi
6:50 PM59 °FSunny.9 mph34%30.33 "Hg10 mi
5:50 PM59 °FSunny.12 mph34%30.36 "Hg10 mi
4:50 PM59 °FSunny.12 mph34%30.36 "Hg10 mi
3:50 PM57 °FPassing clouds.8 mph36%30.39 "HgN/A
2:50 PM57 °FPassing clouds.9 mph36%30.42 "HgN/A
1:50 PM55 °FPassing clouds.10 mph41%30.42 "HgN/A
12:50 PM54 °FPassing clouds.9 mph47%30.42 "HgN/A
11:50 AM54 °FSunny.8 mph54%30.45 "Hg10 mi
10:50 AM48 °FSunny.8 mph66%30.45 "Hg10 mi
9:50 AM46 °FSunny.7 mph66%30.45 "Hg10 mi
8:50 AM41 °FSunny.5 mph87%30.45 "Hg10 mi
7:50 AM34 °FSunny.No wind93%30.42 "Hg10 mi
6:50 AM30 °FFog.No wind93%30.42 "HgN/A
5:50 AM30 °FClear.No wind93%30.39 "Hg10 mi
4:50 AM32 °FClear.No wind93%30.42 "Hg10 mi
Weather by CustomWeather, © 2014

See weather overview